View from above orbital plane
|
View from above satellite
|
Ground track
|
The orbit data is extracted from the following two-line orbital elements,
1 11416U 79057A 21058.54574330 .00000028 00000-0 26174-4 0 9992
2 11416 98.6661 63.6239 0009668 214.6715 145.3840 14.33619859173471
Epoch (UTC): | 27 February 2021 13:05:52 |
Eccentricity: | 0.0009668 |
inclination: | 98.6661° |
perigee height: | 773 km |
apogee height: | 786 km |
right ascension of ascending node: | 63.6239° |
argument of perigee: | 214.6715° |
revolutions per day: | 14.33619859 |
mean anomaly at epoch: | 145.3840° |
orbit number at epoch: | 17347 |
The dashed part of the orbit path shows where the satellite is in the earth's shadow,
|
|